Location: Grange Rosano
(44.4500°N, 6.9667°E)
Time: 08:47:16
(UTC+00:00)

Cosmos 2333 Rocket - Pass Details

Date: 26 May 2022
Orbit: 839 x 863 km, 70.8° (Epoch: 01 July)

Event Time Altitude Azimuth Distance (km) Brightness Sun altitude
Exits shadow 00:19:42 18° 263° (W) 1,972 3.9 -23.4°
Maximum altitude 00:22:48 28° 309° (NW) 1,536 3.7 -23.3°
Drops below altitude 10° 00:27:39 10° 7° (N) 2,476 5.7 -23.1°
Sets 00:30:28 0° 19° (NNE) 3,419 6.8 -23.0°
